Regional Weather Roundup
Issued by NWS Green Bay, WI

Home | Current Version | Previous Version | Graphics & Text | Print | Product List | Glossary Off
Versions: 1 2 3 4 5 6 7 8 9 10 11 12 13 14 15 16 17 18 19 20 21 22 23 24 25 26 27 28 29 30 31 32 33 34 35 36 37 38 39 40 41 42 43 44 45 46 47 48 49 50

000
ASUS43 KGRB 191100
RWRGRB

NORTH-CENTRAL AND NORTHEAST WISCONSIN REGIONAL WEATHER ROUNDUP
NATIONAL WEATHER SERVICE GREEN BAY WI
500 AM CST MON FEB 19 2018

WIZ005-009-010>012-018-019-191200-
NORTH CENTRAL WISCONSIN

CITY           SKY/WX    TMP DP  RH WIND       PRES   REMARKS
IRONWOOD       LGT SNOW  17  15  92 NE9       29.92F FOG     WCI   6
MANITOWISH WTR NOT AVBL
ARBOR VITAE    NOT AVBL
EAGLE RIVER    CLOUDY    26  22  85 N14       29.83R
LAND O LAKES   NOT AVBL
RHINELANDER    CLOUDY    29  26  89 NE3       29.80R
PHILLIPS       NOT AVBL
ANTIGO         NOT AVBL
TOMAHAWK       NOT AVBL
MERRILL        NOT AVBL
$$

WIZ013-073-191200-
NORTHEAST WISCONSIN

CITY           SKY/WX    TMP DP  RH WIND       PRES   REMARKS
IRON MOUNTAIN  MOCLDY    25  22  88 CALM      29.82R
MARINETTE      CLOUDY    30  28  92 NE3       29.84R FOG
$$

WIZ017-030-035>037-045-191200-
CENTRAL WISCONSIN

CITY           SKY/WX    TMP DP  RH WIND       PRES   REMARKS
MEDFORD        NOT AVBL
WAUSAU         FAIR      22  22 100 CALM      29.78R FOG
MOSINEE        NOT AVBL
MARSHFIELD     FAIR      25  24  96 NE5       29.77R FOG
WISC RAPIDS    MOCLDY    24  21  88 E3        29.80R
STEVENS POINT  NOT AVBL
WAUPACA        NOT AVBL
SHAWANO        FAIR      26  23  91 CALM      29.82R FOG
CLINTONVILLE   FAIR      24  22  91 CALM      29.82R FOG
WAUTOMA        CLOUDY    25  23  92 CALM      29.79R
$$

WIZ038-039-048-051-191200-
FOX VALLEY

CITY           SKY/WX    TMP DP  RH WIND       PRES   REMARKS
NWS GREEN BAY  CLOUDY    34  28  79 CALM      29.82R
APPLETON       NOT AVBL
OSHKOSH        CLOUDY    37  31  78 S6        29.80R
FOND DU LAC    CLOUDY    38  30  73 S12       29.80R
$$

WIZ022-050-052-191200-
EAST CENTRAL WISCONSIN

CITY           SKY/WX    TMP DP  RH WIND       PRES   REMARKS
EPHRAIM        NOT AVBL
WASHINGTON ISL NOT AVBL
STURGEON BAY   CLOUDY    35  32  88 MISG      29.83
MANITOWOC      CLOUDY    34  32  92 S6        29.83R
SHEBOYGAN      CLOUDY    34  32  92 S5        29.82R
$$

LMZ563-521-522-541>543-191200-
LAKESHORE

STATION/POSITION TIME  TEMP    WIND        PRES    VSBY  WAVE
                       AIR SEA DIR/SP/G                  HT/PER
                 (UTC) (F)     (DEG/KT/KT) (MB)    (MI)  (FT/S)
SHEBOYGAN LKSHOR 1000   35     180/ 13/ 15 1010.0F
KEWAUNEE LKSHORE 1030   34     170/  7/  8 1008.9F
NORTHPORT PIER   1040   35                 1010.5S
SISTER BAY LKSHO 1020   37     160/  9/ 10   N/A
MENOMINEE LKSHOR 1024   32     160/  7/ 23 1009.7
$$




USA.gov is the U.S. government's official web portal to all federal, state and local government web resources and services.